Fecha, hora, temperatura, viento dirección y velocidad, humedad y presión.

  • 16-01-2019 16:00:00 | 15.00°C | Oeste |13.00 km/h | 61.00% | 0.00 hPa
  • 16-01-2019 15:00:00 | 14.50°C | Sudoeste |14.00 km/h | 59.00% | 0.00 hPa
  • 16-01-2019 14:00:00 | 15.00°C | Sudoeste |13.00 km/h | 61.00% | 0.00 hPa
  • 16-01-2019 13:00:00 | 15.00°C | Sudoeste |6.00 km/h | 63.00% | 0.00 hPa
  • 16-01-2019 12:00:00 | 14.30°C | Sur |3.00 km/h | 75.00% | 0.00 hPa
  • 16-01-2019 11:00:00 | 12.80°C | Sur |6.00 km/h | 98.00% | 0.00 hPa
  • 16-01-2019 10:00:00 | 10.20°C | Calma |0.00 km/h | 99.00% | 0.00 hPa
  • 16-01-2019 09:00:00 | 7.20°C | Norte |5.00 km/h | 99.00% | 0.00 hPa
  • 16-01-2019 08:00:00 | 7.50°C | Nordeste |5.00 km/h | 99.00% | 0.00 hPa
  • 16-01-2019 07:00:00 | 7.20°C | Nordeste |5.00 km/h | 99.00% | 0.00 hPa
  • 16-01-2019 06:00:00 | 6.90°C | Nordeste |5.00 km/h | 99.00% | 0.00 hPa
  • 16-01-2019 05:00:00 | 7.20°C | Norte |2.00 km/h | 99.00% | 0.00 hPa
  • 16-01-2019 04:00:00 | 7.30°C | Nordeste |4.00 km/h | 98.00% | 0.00 hPa
  • 16-01-2019 03:00:00 | 7.00°C | Norte |6.00 km/h | 98.00% | 0.00 hPa
  • 16-01-2019 02:00:00 | 7.20°C | Nordeste |5.00 km/h | 98.00% | 0.00 hPa
  • 16-01-2019 01:00:00 | 7.70°C | Nordeste |5.00 km/h | 98.00% | 0.00 hPa
  • 16-01-2019 00:00:00 | 8.00°C | Nordeste |6.00 km/h | 98.00% | 0.00 hPa
  • 15-01-2019 23:00:00 | 8.20°C | Nordeste |7.00 km/h | 97.00% | 0.00 hPa
  • 15-01-2019 22:00:00 | 9.30°C | Norte |8.00 km/h | 95.00% | 0.00 hPa
  • 15-01-2019 21:00:00 | 9.90°C | Norte |10.00 km/h | 95.00% | 0.00 hPa
  • 15-01-2019 20:00:00 | 11.00°C | Norte |8.00 km/h | 91.00% | 0.00 hPa
  • 15-01-2019 19:00:00 | 13.20°C | Oeste |10.00 km/h | 84.00% | 0.00 hPa
  • 15-01-2019 18:00:00 | 13.80°C | Oeste |13.00 km/h | 82.00% | 0.00 hPa
  • 15-01-2019 17:00:00 | 14.40°C | Oeste |12.00 km/h | 79.00% | 0.00 hPa
    • diseño web asturias Información sobre el estado de las mareas, altura de la marejada, temperatura del agua y otros datos de Gijón en Asturias.

      Surf Gijón